User: anonymous   Login
Location: Unspecified
(0.0000°N, 0.0000°E)
Time: 21:27:07
(UTC+00:00)
Language:

RESURS DK-1 - Orbit

View from above orbital plane
View from above orbital plane
View from above satellite
View from above satellite

Ground track
Ground track

The orbit data is extracted from the following two-line orbital elements,

1 29228U 06021A   16044.56206131  .00000825  00000-0  70625-4 0  9990
2 29228  69.9364 263.4850 0004439 329.4595  65.4889 15.01772937534584
Epoch (UTC): 13 February 2016 13:29:22
Eccentricity: 0.0004439
inclination: 69.9364°
perigee height: 558 km
apogee height: 564 km
right ascension of ascending node: 263.4850°
argument of perigee: 329.4595°
revolutions per day: 15.01772937
mean anomaly at epoch: 65.4889°
orbit number at epoch: 53458

The dashed part of the orbit path shows where the satellite is in the earth's shadow,  

DLR